Location: *
(31.2983°S, 151.4094°E)
Time: 10:13:27
(UTC+00:00)

Cosmos 2285 Rocket - Pass Details

Date: 25 August 2019
Orbit: 970 x 1000 km, 74.0° (Epoch: 19 October)

Event Time Altitude Azimuth Distance (km) Brightness Sun altitude
Rises 18:25:15 0° 353° (N) 3,704 6.9 -24.9°
Reaches altitude 10° 18:27:48 10° 355° (N) 2,763 6.3 -24.4°
Maximum altitude 18:34:10 68° 77° (ENE) 1,076 4.3 -23.0°
Drops below altitude 10° 18:40:36 10° 158° (SSE) 2,785 6.6 -21.7°
Sets 18:43:11 0° 160° (SSE) 3,737 7.3 -21.1°
